Tracking 29892 objects as of 21-Nov-2024
HD Live streaming from Space Station
objects crossing your sky now

COSMOS 2499 DEB

Track COSMOS 2499 DEB now!
10-day predictions


NORAD ID: 55722
Int'l Code: 2014-028AJ
Perigee: 1,209.7 km
Apogee: 1,504.3 km
Inclination: 82.4 °
Period: 112.7 minutes
Semi major axis: 7727 km
RCS: Unknown
Launch date: May 23, 2014
Source: Commonwealth of Independent States (former USSR) (CIS)
Launch site: PLESETSK MISSILE AND SPACE COMPLEX (PKMTR)

Note: This is SATELLITE DEBRIS
Your satellite tracking list
Your tracking list is empty




NASA's NSSDC Master Catalog

Two Line Element Set (TLE):
1 55722U 14028AJ  24319.16345573  .00005556  00000-0  23267-1 0  9991
2 55722  82.3637 284.9055 0190591 320.8979  37.8473 12.77917685  8146
Source of the keplerian elements: AFSPC